User: anonymous   Login
Location: Bishop�s Knoyle
(51.0728°N, 2.1714°W)
Time: 18:30:54
(UTC+00:00)
Language:

Cosmos 1328 Rocket - Orbit

View from above orbital plane
View from above orbital plane
View from above satellite
View from above satellite

Ground track
Ground track

The orbit data is extracted from the following two-line orbital elements,

1 12988U 81117B   21105.80648047  .00000090  00000-0  77869-5 0  9993
2 12988  82.5276 201.3011 0016511 266.0878 241.2970 14.84805657106302
Epoch (UTC): 15 April 2021 19:21:19
Eccentricity: 0.0016511
inclination: 82.5276°
perigee height: 602 km
apogee height: 626 km
right ascension of ascending node: 201.3011°
argument of perigee: 266.0878°
revolutions per day: 14.84805657
mean anomaly at epoch: 241.2970°
orbit number at epoch: 10630

The dashed part of the orbit path shows where the satellite is in the earth's shadow,  

DLR